This is the latest recevied weather packets stored in our database for station/object KD4IZ-13. If no packets are shown the sender has not sent any weather packets the latest 10 day(s).
| Time | Temp. | Humidity | Pressure | Rain* | Wind** | Luminosity | Snow |
|---|---|---|---|---|---|---|---|
| 1778078866 | 15° C | 99% | 1010.9 hPa | 1.78 mm | - | 57 W/m² | - |
| 1778078563 | 15° C | 99% | 1010.9 hPa | 0 mm | - | 63 W/m² | - |
| 1778078260 | 15° C | 99% | 1010.9 hPa | 0 mm | - | 46 W/m² | - |
| 1778077958 | 15° C | 99% | 1011.1 hPa | 0 mm | - | 57 W/m² | - |
| 1778077656 | 15.56° C | 99% | 1010.5 hPa | 1.27 mm | - | 84 W/m² | - |
| 1778077354 | 15.56° C | 99% | 1011 hPa | 1.27 mm | - | 61 W/m² | - |
| 1778077052 | 15.56° C | 99% | 1010.7 hPa | 0 mm | - | 96 W/m² | - |
| 1778076750 | 15.56° C | 99% | 1010.6 hPa | 0 mm | - | 128 W/m² | - |
| 1778076447 | 15.56° C | 99% | 1010.4 hPa | 1.78 mm | - | 139 W/m² | - |
| 1778076144 | 15.56° C | 99% | 1010.8 hPa | 1.78 mm | - | 114 W/m² | - |
| 1778075840 | 15.56° C | 99% | 1010.9 hPa | 1.27 mm | - | 72 W/m² | - |
| 1778075537 | 15.56° C | 99% | 1011.1 hPa | 1.27 mm | - | 84 W/m² | - |
| 1778075234 | 15.56° C | 99% | 1011.3 hPa | 1.78 mm | - | 98 W/m² | - |
| 1778074930 | 15.56° C | 99% | 1011.3 hPa | 1.78 mm | - | 97 W/m² | - |
| 1778074628 | 15.56° C | 99% | 1011.2 hPa | 0 mm | - | 109 W/m² | - |
| 1778074324 | 15.56° C | 99% | 1011.1 hPa | 1.78 mm | - | 124 W/m² | - |
| 1778074021 | 15.56° C | 99% | 1011.2 hPa | 1.27 mm | - | 95 W/m² | - |
| 1778073718 | 15.56° C | 98% | 1011.2 hPa | 3.05 mm | - | 62 W/m² | - |
| 1778073416 | 15.56° C | 98% | 1011.4 hPa | 3.05 mm | - | 35 W/m² | - |
| 1778073111 | 15.56° C | 97% | 1011.1 hPa | 1.27 mm | - | 39 W/m² | - |
| 1778072808 | 15.56° C | 97% | 1011.1 hPa | 0 mm | - | 46 W/m² | - |
| 1778072506 | 16.11° C | 96% | 1011.1 hPa | 1.78 mm | - | 57 W/m² | - |
| 1778072204 | 16.11° C | 95% | 1011.3 hPa | 1.78 mm | - | 68 W/m² | - |
| 1778071901 | 16.11° C | 93% | 1011.3 hPa | 1.78 mm | - | 56 W/m² | - |
| 1778071599 | 16.67° C | 92% | 1010.9 hPa | 1.27 mm | - | 53 W/m² | - |
* Rain latest hour (hover to see other rain measurements)
** Current wind speed in m/s (hover to see current wind gust speed)